COSMOS 1254

Satellite information

Favourite Embed

Satellite Type and Status

PAYLOADIN ORBIT

Key statistics

Satellite COSMOS 1254 at a glance.

Uptime

16136

Days in orbit

Revolutions

≈ 12.5

Per day

Orbit

LEO

Low Earth Orbit

Inclination

74.0

Latest

Satellite identification and parameters

Extended collection of information and parameters for COSMOS 1254.

Object identification

Identified? True

Debris? False

Object name: COSMOS 1254

International designator: 1981-022E

Object number (NORAD): 12324

Object ID (CCSDS): 12324

Country: COMMONWEALTH OF INDEPENDENT STATES (CIS)

Current information (Y/N): Y

RCS size: MEDIUM

Orbital parameters

Period: 114.913 minutes

Inclination: 74.0327 deg

SMA: 7829.606 km

Apoapsis: 1472.268 km

Periapsis: 1430.675 km

RAAN: 22.3667 deg

Eccentricy: 0.0026561

Argument of periapsis: 202.6309 deg

Mean anomaly: 230.2974 deg

Mean motion: 12.53120582 rev/day

Mean motion (dot): -0.00000009 rev/day2

B* drag term: 0.000041886 1/REarth

Two-line elements (TLE)

Creation date: May 10, 2025, 2:32 a.m.

Reference frame: TEME

Reference center: EARTH

Epoch: May 9, 2025, 8:46 p.m. UTC

TLE line 0: 0 COSMOS 1254

TLE line 1: 1 12324U 81022E 25129.86560631 -.00000009 00000-0 41886-4 0 9990

TLE line 2: 2 12324 74.0327 22.3667 0026561 202.6309 230.2974 12.53120582 20856

Live tracking on map

Real-time ground track for satellite COSMOS 1254.

In-orbit conjunctions

A list of the most updated potential collisions computed for object COSMOS 1254.

Target Orbit TCA Probability of collision Miss distance Type
COSMOS 1823 DEB LEO 2025-04-06 19:44:32 0.0001212021 598.0 (m) DEBRIS

Associated space launch

Military communications satellites

COSMOS 1254 was lifted into orbit during the mission ‘Kosmos-3M | Strela-1M 209-216’, on board a Kosmos-3M space rocket.

The launch took place on March 6, 1981, 11:31 a.m. from 132/2.

For more information about the launch, click the button.

Launch to space Kosmos-3M | Strela-1M 209-216
Kosmos-3M | Strela-1M 209-216

Agency: N/A

Status: Launch Successful

Launch date: March 6, 1981, 11:31 a.m. UTC

Rocket: Kosmos-3M

Launch pad: 132/2

Location: Plesetsk Cosmodrome, Russian Federation

...

Latest news about this satellite

There are no fresh news available about this satellite. Check back as we update our databases every day.


Newsletter sign-up

Weekly statistics, charts and insights to help you stay on top of the space industry.